MST,Max TemperatureF,Mean TemperatureF,Min TemperatureF,Max Dew PointF,MeanDew PointF,Min DewpointF,Max Humidity, Mean Humidity, Min Humidity, Max Sea Level PressureIn, Mean Sea Level PressureIn, Min Sea Level PressureIn, Max VisibilityMiles, Mean VisibilityMiles, Min VisibilityMiles, Max Wind SpeedMPH, Mean Wind SpeedMPH, Max Gust SpeedMPH,PrecipitationIn, CloudCover, Events, WindDirDegrees
2011-11-1,36,28,20,18,13,8,79,58,31,30.45,30.35,30.18,,,,10,6,20,0.08,,,230
2011-11-2,41,32,22,14,9,2,67,44,20,30.39,30.14,29.84,,,,15,9,26,0.06,,,236
2011-11-3,38,34,29,25,18,6,84,53,30,29.82,29.78,29.73,,,,12,7,25,0.00,,,253
2011-11-4,30,23,14,26,18,10,92,77,52,29.88,29.82,29.76,,,,8,5,,0.06,,,37
2011-11-5,28,16,5,11,7,1,86,68,39,29.92,29.85,29.81,,,,8,4,,0.14,,,255
2011-11-6,29,18,6,11,7,2,82,67,40,30.11,29.99,29.91,,,,9,5,,0.00,,,233
2011-11-7,29,20,12,16,12,8,83,68,48,30.15,30.09,30.06,,,,9,7,22,0.00,,,236
2011-11-8,33,26,18,17,12,5,85,61,30,30.44,30.24,30.06,,,,10,7,20,0.00,,,236
2011-11-9,36,24,12,24,14,7,78,65,47,30.53,30.39,30.12,,,,12,8,18,0.48,,,230
2011-11-10,42,38,35,27,25,24,63,55,49,30.08,29.86,29.65,,,,13,11,25,0.00,,,248
2011-11-11,41,35,29,30,25,21,96,67,44,29.62,29.42,29.31,,,,15,10,30,0.29,,,245
2011-11-12,33,28,24,27,22,16,92,73,54,29.54,29.37,29.24,,,,12,6,23,0.01,,,246
2011-11-13,35,30,24,23,16,1,93,61,23,29.41,29.31,29.23,,,,9,6,25,0.01,,,254
2011-11-14,27,22,17,18,5,-5,82,52,27,29.82,29.56,29.39,,,,8,5,21,0.00,,,249
2011-11-15,23,20,16,11,3,-3,81,52,34,30.18,30.01,29.83,,,,8,5,22,0.00,,,250
2011-11-16,25,20,16,14,3,-3,86,50,36,30.28,30.14,29.80,,,,9,6,,0.34,,,245
2011-11-17,26,20,13,19,14,7,91,79,58,29.79,29.60,29.49,,,,13,8,21,0.00,,,244
2011-11-18,11,5,-1,5,-3,-7,79,71,53,30.06,29.98,29.81,,,,9,8,20,0.00,,,39
2011-11-19,11,-1,-13,-3,-9,-19,80,67,48,30.08,30.02,29.96,,,,10,6,,0.00,,,254
2011-11-20,19,10,0,2,-2,-5,80,65,35,30.05,29.99,29.96,,,,10,7,18,0.00,,,238
2011-11-21,30,18,5,17,7,-1,80,68,51,29.97,29.81,29.69,,,,13,9,21,0.25,,,240
2011-11-22,35,31,27,32,25,15,94,79,54,29.72,29.54,29.34,,,,9,5,,0.04,,,232
2011-11-23,37,32,27,33,30,27,97,92,79,29.62,29.42,29.32,,,,7,1,,0.30,,,229
2011-11-24,31,24,18,29,18,13,91,74,52,29.75,29.65,29.49,,,,9,6,,0.39,,,237
2011-11-25,30,22,14,20,12,4,74,59,35,30.48,29.87,29.44,,,,13,7,25,0.00,,,244
2011-11-26,31,22,13,23,15,7,78,67,52,30.53,30.35,30.17,,,,14,9,29,0.30,,,237
2011-11-27,37,33,29,33,29,22,94,83,71,30.14,29.86,29.65,,,,15,10,24,0.14,,,240
2011-11-28,33,30,27,28,21,18,86,69,56,30.29,30.20,29.96,,,,8,6,,0.05,,,244
2011-11-29,32,30,27,25,22,20,88,71,61,30.19,30.09,29.92,,,,10,8,20,0.29,,,239
2011-11-30,29,20,12,26,20,10,92,82,67,30.71,30.37,29.93,,,,8,5,,0.04,,,330